Location: Ostrava
(49.8330°N, 18.2830°E)
Time: 17:05:38
(UTC+02:00)

Lacrosse 5 - Visible Passes

Search period start: 27 August 2016 00:00
Search period end: 06 September 2016 00:00
Orbit: 716 x 722 km, 57.0° (Epoch: 24 August)

Date Brightness Start Highest point End Pass type
(mag) Time Alt. Az. Time Alt. Az. Time Alt. Az.
27 Aug 1.9 20:09:32 10° NW 20:14:38 81° NNE 20:19:43 10° ESE visible
27 Aug 3.3 21:52:58 10° WNW 21:57:12 27° SW 21:59:17 20° SSW visible
28 Aug 2.7 20:59:25 10° WNW 21:04:14 44° SW 21:08:04 15° SSE visible
29 Aug 2.1 20:06:05 10° WNW 20:11:08 70° SW 20:16:10 10° SE visible
29 Aug 4.1 21:50:16 10° W 21:53:20 16° WSW 21:56:08 11° SSW visible
30 Aug 3.5 20:56:15 10° WNW 21:00:29 27° SW 21:04:43 10° S visible
31 Aug 2.8 20:02:43 10° WNW 20:07:31 44° SW 20:12:18 10° SSE visible
01 Sep 4.2 20:53:31 10° W 20:56:38 16° WSW 20:59:44 10° SSW visible
02 Sep 3.7 19:59:31 10° WNW 20:03:47 28° SW 20:08:02 10° S visible
04 Sep 4.4 19:56:47 10° W 19:59:55 17° WSW 20:03:04 10° SSW visible
